Regional Weather Roundup
Issued by NWS Wakefield, VA

Home | Current Version | Previous Version | Graphics & Text | Print | Product List | Glossary On
Versions: 1 2 3 4 5 6 7 8 9 10 11 12 13 14 15 16 17 18 19 20 21 22 23 24 25 26 27 28 29 30 31 32 33 34 35 36 37 38 39 40 41 42 43 44 45 46 47 48 49 50
000
ASUS41 KAKQ 292215
RWRAKQ

REGIONAL WEATHER ROUNDUP
NATIONAL WEATHER SERVICE WAKEFIELD VA
600 PM EDT FRI MAY 29 2015

Note: "fair" indicates few or no clouds below 12,000 feet with no
significant weather and/or obstructions to visibility. * = Denotes
station may not report precipitation (e.g., rain,snow,etc.),
thunder or fog.

VAZ042-051-052>054-056-292300-
NORTHERN VIRGINIA

CITY           SKY/WX    TMP DP  RH WIND       PRES   REMARKS
WASH NATIONAL  MOSUNNY   85  70  60 SE7       30.18F
DULLES         PTSUNNY   81  68  64 SE8       30.18S
FORT BELVOIR   MOSUNNY   82  71  70 VRB5      30.18S
QUANTICO       PTSUNNY   80  70  71 SE16      30.18S
FREDERICKSBRG*   N/A     75  69  80 W14       30.19R
STAFFORD*      CLOUDY    78  69  74 CALM      30.22R
WARRENTON      FAIR      82  72  71 E6        30.18S
CULPEPER*      MOSUNNY   79  71  75 CALM      30.18S
MANASSAS*      PTSUNNY   82  72  69 S6        30.18S
LEESBURG*      PTSUNNY   86  68  54 S10G17    30.19S
WINCHESTER     MOSUNNY   84  70  61 S7        30.18F
FRONT ROYAL*   FAIR      77  66  69 SW3       30.18S
LURAY*         FAIR      77  70  78 N5        30.19F
$$

VAZ048-049-060>072-079>083-292300-
CENTRAL AND SOUTH CENTRAL VIRGINIA

CITY           SKY/WX    TMP DP  RH WIND       PRES   REMARKS
RICHMOND       PTSUNNY   78  65  63 NW8       30.19S
CHESTERFIELD*  NOT AVBL
PETERSBURG*    CLOUDY    79  73  80 NW5       30.18F
HANOVER        CLOUDY    73  67  81 CALM      30.20F THUNDER
TAPPAHANNOCK*  CLOUDY    83  61  47 E9        30.20S
QUINTON*       FAIR      83  67  57 SE5       30.18F
CHARLOTTSVILLE PTSUNNY   80  63  55 SE6       30.18F
GORDONSVILLE*  FAIR      74  68  82 CALM      30.18F
ORANGE*        MOSUNNY   81  70  69 CALM      30.19F
LOUISA*        PTSUNNY   77  66  69 CALM      30.18F
BUMPASS*       FAIR      79  67  66 SE5       30.19S
FARMVILLE*     PTSUNNY   80  72  77 CALM      30.16F
CREWE*         FAIR      76  71  84 CALM      30.18F
FORT PICKETT*  FAIR      76  70  80 W6        30.18F
CHASE CITY*    FAIR      79  71  77 CALM      30.17F
CLARKSVILLE*   FAIR      86  64  48 SE5       30.16F
SOUTH HILL*    PTSUNNY   82  64  54 CALM      30.23F
LAWRENCEVILLE* FAIR      82  66  57 S5        30.18F
EMPORIA*       MOSUNNY   82  59  44 SE5       30.19F
$$

VAZ088>098-292300-
SOUTHEAST VIRGINIA

CITY           SKY/WX    TMP DP  RH WIND       PRES   REMARKS
NORFOLK        SUNNY     82  62  50 SE14      30.20F
VIRGINIA BEACH MOSUNNY   78  65  63 SE14      30.21F
NORFOLK NAVAL  MOSUNNY   86  64  47 SE13      30.21S
WEST POINT*    SUNNY     85  57  38 E8        30.21S
SALUDA*        FAIR      80  63  55 SE7       30.20F
NEWPORT NEWS   SUNNY     86  66  51 E10       30.19F
LANGLEY AFB    SUNNY     80  66  61 SE13      30.19F
FORT EUSTIS    SUNNY     84  64  50 E9        30.17F
WILLIAMSBURG*  SUNNY     88  70  55 E8        30.19F
HR EXEC AP*    FAIR      82  66  57 E12       30.21S
FRANKLIN*      SUNNY     85  58  39 SE7       30.19S
WAKEFIELD      MOSUNNY   86  62  44 VRB5      30.18F
$$

VAZ020-022-025-037-045-292300-
WEST CENTRAL AND SOUTHWEST VIRGINIA

CITY           SKY/WX    TMP DP  RH WIND       PRES   REMARKS
STAUNTON*      MOSUNNY   82  67  61 NE5       30.21F
WAYNESBORO*    MOCLDY    74  62  65 SE13G24   30.22R
HOT SPRINGS VA MOSUNNY   70  60  70 E6        30.30S
LYNCHBURG      SUNNY     83  63  50 S13       30.19S
DANVILLE       MOSUNNY   83  68  60 E7        30.17F
SOUTH BOSTON*  CLOUDY    78  71  78 CALM      30.17S
MARTINSVILLE   MOSUNNY   81  65  57 SW3       30.21F
ROANOKE        TSTM      72  64  76 S13G21    30.21R
BLACKSBURG     CLOUDY    74  64  69 SE3       30.26R THUNDER
DUBLIN*        TSTM      69  66  90 SE26G47   30.26R VSB 1/2
MARION*        CLOUDY    75  66  74 CALM      30.26F
HILLSVILLE*    LGT RAIN  65  63  94 S8G17     30.29S
RICHLANDS*     FAIR      73  67  81 CALM      30.24F
WISE*          LGT RAIN  68  66  94 S6        30.24F
ABINGDON*      CLOUDY    73  67  80 CALM      30.21S
$$

MDZ021>025-VAZ099-100-292300-
SOUTHERN MARYLAND AND THE DELMARVA PENINSULA

CITY           SKY/WX    TMP DP  RH WIND       PRES   REMARKS
PATUXENT RIVER PTSUNNY   80  64  58 SE10      30.20S
BAY BRIDGE APT NOT AVBL
LEONARDTOWN    SUNNY     81  64  57 SE8       30.22S
DOVER          SUNNY     75  69  81 E12       30.19F
GEORGETOWN     PTSUNNY   80  65  59 SW12      30.22F
EASTON         RAIN      73  73 100 CALM      30.24F
CAMBRIDGE      MOSUNNY   79  66  65 E7        30.20F
SALISBURY      PTSUNNY   74  61  63 S6        30.22F
OCEAN CITY     SUNNY     73  64  73 S7        30.24F
WALLOPS ISLAND MOSUNNY   72  65  78 S8        30.24F
ACCOMACK*      MOSUNNY   77  66  69 S12       30.22F
$$

NCZ012>017-030>032-292300-
NORTH CENTRAL AND EASTERN NORTH CAROLINA

CITY           SKY/WX    TMP DP  RH WIND       PRES   REMARKS
ROANOKE RAPIDS FAIR      84  59  42 S6        30.18F
RALEIGH        MOSUNNY   85  58  39 SE9       30.17F
ELIZABETH CITY SUNNY     79  67  66 E13       30.21F
AHOSKIE*       MOSUNNY   83  62  47 E3        30.18F
EDENTON*         N/A     80  69  70 E10       30.20F
CURRITUCK*     SUNNY     78  64  63 E8        30.23F
KILL DEVIL HLS SUNNY     76  69  77 E6        30.21F
MANTEO         MOSUNNY   76  69  76 E9        30.22F
CAPE HATTERAS  SUNNY     80  66  62 SE8       30.22F
TARBORO*       FAIR      87  61  41 CALM      30.18F
GOLDSBORO      SUNNY     88  61  40 CALM      30.14F
WASHINGTON     SUNNY     82  64  52 SE10      30.19F
GREENVILLE     SUNNY     84  64  51 SE9       30.19F
NEW BERN       SUNNY     81  66  60 SE8       30.20F
WILMINGTON     PTSUNNY   79  67  66 SE10      30.19F
$$

VAZ048-292300-
ELSEWHERE

CITY           SKY/WX    TMP DP  RH WIND       PRES   REMARKS
HARRISBURG PA  PTSUNNY   84  67  56 SE7       30.16F
BALTIMORE      PTSUNNY   83  68  60 E14       30.18F
ANNAPOLIS      MOSUNNY   77  68  73 SE10G22   30.20S
ANDREWS AFB    PTSUNNY   81  71  71 E9        30.18F
PHILADELPHIA   PTSUNNY   86  65  49 SW7       30.19S
HENDERSON NC   MOSUNNY   84  58  41 SE9       30.18F
GREENSBORO     PTSUNNY   85  61  44 S7        30.17S
ROCKY MOUNT    SUNNY     87  59  38 S7        30.17F
$$

VAZ100-292300-
MARINE

STATION/POSITION TIME  TEMP    WIND        PRES    WAVE   SWELL
                       AIR SEA DIR/SP/G            HT/PER HT/PER
                 (UTC) (F)     (DEG/KT/KT) (MB)    (FT/S) (FT/S)
BRANDYWINE LGT   2106   66 67  140/ 13/ 13 1024.2F
CAPE MAY NJ      2106   71 72  120/  7/  9 1023.9S
LEWES DE         2106   71 68  150/  8/ 12 1023.8F
15NM E FENWICK I 2150   68 67              1023.7F   2/ 8
OCEAN-CITY-INLET 2106   67 59  200/  4/  6 1024.0R
WACHAPREAGUE VA  2106   74 80  170/  9/ 11 1023.9F
THOMAS POINT MD  2200   75 73  120/ 11/ 12 1022.8F
GOOSES REEF MD   2200   77 75  180/ 14/ 16 1023.6F   1/ 3
COVE POINT MD    2106   74     170/ 10/ 11 1023.5F
SOLOMONS ISLAND  2106      76                N/A
BISHOPS HEAD MD  2106   78 83  150/ 11/ 12 1022.8S
PINEY POINT MD   2100          150/ 15/ 17   N/A
CAMBRIDGE MD     2106   77 74   80/ 10/ 12 1023.0R
LEWISETTA VA     2106   80 78              1022.5S
RAPPAHANNOCK LGT 2100          140/ 11/ 12 1024.0F
STINGRAY PT      2200   76 76  160/ 12/ 14 1023.3F   2/ 2
YORK RVR RNG VA  2106   74     140/ 17/ 19 1022.4F
YORKTOWN VA      2106   78 73  120/ 10/ 16 1022.6F
JAMESTOWN VA     2200   82 79  100/ 10/ 14   N/A
DOMINION TERM VA 2106   80      90/  6/  9 1022.7F
KIPTOPEKE VA     2100      80  150/ 15/ 19   N/A
CHES BAY BRIDGE  2106   76 70  110/  7/ 15 1023.0F
CAPE HENRY VA    2106   73     130/ 12/ 18 1022.2F
CHESAPEAKE LGHT  2100   70     130/ 16/ 16 1024.4F
WILLOUBY STN VA  2106   76     100/ 16/ 18 1023.3F
CAPE HENRY BUOY  2128      66                N/A     2/ 7
1ST LANDING BUOY 2200      71              1022.8F
CAPE CHARLES BUO 2126      72                N/A     2/ 8   2/ 8
OFFSHORE WE BUOY 2111      71                N/A     3/ 8   2/ 8
64NM E OF VA BCH 2150   71 69   80/  4/  6 1023.6F   3/ 7   3/ 7
DUCK PIER NC     2100   73 59   80/ 12/ 13 1022.9F
44100 DUCK FRF   2124      72                N/A     3/ 8
44056 DUCK FRF   2111      69                N/A     2/ 8
OREGON INLET NC  2100   75 80   60/  8/ 11 1023.8F
HATTERAS NC      2100   78 78  140/  5/  7 1023.2F
DIAMOND SHLS NC  2150   77 81  130/  8/ 10 1023.3F   3/ 8   3/ 8
CAPE LOOKOUT NC  2200   76     110/  6/  6 1022.5F
$$


USA.gov is the U.S. government's official web portal to all federal, state and local government web resources and services.